Location: Plymouth
(43.7570°N, 71.6890°W)
Time: 14:18:14
(UTC-04:00)

Amateur Radio Satellites - All Passes

Search period start: 01 October 2014 13:48
Search period end: 02 October 2014 13:48
Location: Plymouth, 43.7570°N, 71.6890°W

Satellite Date Start Highest point End Downlink Frequencies (MHz)
Time Altitude Azimuth
Uribyol 2 01 Oct 13:48:16 13:53:23 64° 72° (ENE) 13:58:33 436.500 FM
MaSat-1 01 Oct 13:55:40 13:57:45 15° 47° (NE) 13:59:39 437.345 MHz
Saudisat 1A 01 Oct 13:58:29 14:02:45 52° 120° (ESE) 14:07:02 436.775 MHz
AO-7 01 Oct 13:59:05 14:04:25 19° 47° (NE) 14:09:45 29.400 - 29.500 MHz
JAS-1B 01 Oct 14:14:50 14:22:25 67° 257° (WSW) 14:28:48 435.800 - 435.900 CW/SSB
Oscar 16 01 Oct 14:16:50 14:21:30 33° 264° (W) 14:26:12 437.025 USB, Beacon 2401.1428
AO-Echo 01 Oct 14:23:33 14:28:08 54° 260° (W) 14:32:47 ?
AO-27 01 Oct 14:26:04 14:31:11 63° 258° (WSW) 14:36:22 436.795 MHz FM
RS-15 01 Oct 14:31:32 14:35:08 12° 266° (W) 14:38:47 29.354 - 29.394 USB, Beacon 29.352 USB
Gurwin Techsat 1B 01 Oct 14:52:37 14:57:55 75° 257° (WSW) 15:03:15 435.225 FM
TMSAT-1 01 Oct 15:21:12 15:26:23 56° 260° (W) 15:31:37 436.925 FM
ITAMSAT 1 01 Oct 15:28:59 15:32:29 18° 269° (W) 15:36:01 435.822 SSB
Uribyol 2 01 Oct 15:30:01 15:33:19 17° 269° (W) 15:36:38 436.500 FM
MaSat-1 01 Oct 15:31:21 15:34:27 35° 250° (WSW) 15:37:09 437.345 MHz
Saudisat 1A 01 Oct 15:39:05 15:42:36 23° 319° (NW) 15:46:09 436.775 MHz
Uosat F 01 Oct 15:44:59 15:49:43 45° 69° (ENE) 15:54:29 435.120 FM
AO-7 01 Oct 15:47:38 15:55:53 74° 68° (ENE) 16:04:09 29.400 - 29.500 MHz
KITSAT 1 01 Oct 16:09:36 16:16:27 32° 107° (ESE) 16:23:18 435.175 FM
Hamsat 01 Oct 16:21:27 16:22:39 11° 60° (ENE) 16:23:51 145.90 MHz
JAS-2 01 Oct 16:23:51 16:27:35 20° 60° (ENE) 16:31:29 435.800 - 435.900 CW/SSB, 435.910 FM
PCSat 01 Oct 16:31:15 16:34:03 14° 34° (NE) 16:36:50 145.825 MHz
Uosat F 01 Oct 17:24:50 17:28:43 22° 266° (W) 17:32:37 435.120 FM
OPAL 01 Oct 17:31:42 17:36:39 48° 102° (ESE) 17:41:29 ?
AO-7 01 Oct 17:42:51 17:49:23 25° 267° (W) 17:55:57 29.400 - 29.500 MHz
Sapphire 01 Oct 17:47:49 17:52:52 37° 50° (NE) 17:57:53 437.095 MHz 1200 baud AX-25 AFSK
Oscar 10/S400 01 Oct 17:50:05 18:08:52 52° 164° (SSE) 19:22:29 145.825 - 145.975 CW/USB, Beacon 145.810 USB
Hamsat 01 Oct 17:53:38 17:57:58 82° 258° (WSW) 18:02:18 145.90 MHz
KITSAT 1 01 Oct 18:03:19 18:11:20 64° 307° (NW) 18:19:23 435.175 FM
JAS-2 01 Oct 18:07:09 18:12:13 56° 260° (W) 18:17:36 435.800 - 435.900 CW/SSB, 435.910 FM
SO-67 01 Oct 18:11:26 18:13:50 18° 68° (ENE) 18:16:15 435.3500 MHz FM
PCSat 01 Oct 18:13:13 18:18:37 61° 56° (NE) 18:23:58 145.825 MHz
STRAND 1 01 Oct 18:34:52 18:38:25 19° 92° (E) 18:41:57 ?
AO-40 01 Oct 18:48:47 23:46:43 35° 187° (S) 05:05:22 Beacon 2401.320
SO-50 01 Oct 19:00:53 19:05:08 44° 118° (ESE) 19:09:30 436.795 FM
OPAL 01 Oct 19:11:13 19:15:13 24° 299° (WNW) 19:19:09 ?
Sapphire 01 Oct 19:31:20 19:36:16 36° 249° (WSW) 19:41:10 437.095 MHz 1200 baud AX-25 AFSK
HO-68 01 Oct 19:33:19 19:39:16 30° 58° (ENE) 19:45:13 435.675 MHz FM
SO-67 01 Oct 19:43:41 19:46:40 27° 264° (W) 19:49:40 435.3500 MHz FM
PCSat 01 Oct 19:57:37 20:01:33 21° 254° (WSW) 20:05:28 145.825 MHz
KITSAT 1 01 Oct 20:02:29 20:08:28 22° 332° (NNW) 20:14:28 435.175 FM
STRAND 1 01 Oct 20:12:55 20:17:58 58° 289° (WNW) 20:23:01 ?
Oscar 11 01 Oct 20:16:06 20:17:50 12° 60° (ENE) 20:19:33 145.825 FM, Beacon 2401.500 USB
SO-50 01 Oct 20:42:00 20:45:52 27° 317° (NW) 20:49:50 436.795 FM
FUNcube-1 01 Oct 20:42:51 20:43:48 11° 58° (ENE) 20:44:46 145.950 - 145.970 MHz USB
UKube-1 01 Oct 20:43:49 20:47:35 30° 67° (ENE) 20:51:22 145.840 MHz, 145.915 MHz
Saudisat 1A 01 Oct 20:45:55 20:47:48 12° 32° (NNE) 20:49:41 436.775 MHz
UOSAT-12 01 Oct 21:05:00 21:09:36 67° 121° (ESE) 21:14:17 437.025 FM, 437.400 FM
HO-68 01 Oct 21:19:29 21:26:31 61° 258° (WSW) 21:33:37 435.675 MHz FM
ZACube-1 01 Oct 21:24:50 21:28:40 27° 67° (ENE) 21:32:33 437.345 MHz
Oscar 11 01 Oct 21:49:03 21:53:24 76° 258° (WSW) 21:57:47 145.825 FM, Beacon 2401.500 USB
KITSAT 1 01 Oct 22:03:32 22:07:35 14° 3° (N) 22:11:37 435.175 FM
FUNcube-1 01 Oct 22:14:51 22:19:24 85° 76° (ENE) 22:24:03 145.950 - 145.970 MHz USB
ISS 01 Oct 22:18:07 22:21:25 65° 145° (SE) 22:24:43 145.800 FM
UKube-1 01 Oct 22:20:05 22:23:45 27° 264° (W) 22:27:27 145.840 MHz, 145.915 MHz
Saudisat 1A 01 Oct 22:23:53 22:28:17 61° 52° (NE) 22:32:39 436.775 MHz
UOSAT-12 01 Oct 22:46:37 22:50:12 21° 321° (NW) 22:53:50 437.025 FM, 437.400 FM
ZACube-1 01 Oct 23:00:50 23:04:56 33° 264° (W) 23:09:08 437.345 MHz
ISS 01 Oct 23:55:22 23:58:19 29° 343° (NNW) 00:01:17 145.800 FM
FUNcube-1 01 Oct 23:55:59 23:56:24 10° 273° (W) 23:56:50 145.950 - 145.970 MHz USB
KITSAT 1 01 Oct 23:59:58 00:06:28 25° 33° (NNE) 00:12:55 435.175 FM
Saudisat 1A 02 Oct 00:04:43 00:07:23 16° 250° (WSW) 00:10:02 436.775 MHz
RS-15 02 Oct 00:31:51 00:38:51 20° 99° (E) 00:45:46 29.354 - 29.394 USB, Beacon 29.352 USB
ISS 02 Oct 01:33:09 01:35:45 21° 3° (N) 01:38:20 145.800 FM
Oscar 19 02 Oct 01:45:38 01:50:15 32° 96° (E) 01:54:48 437.125 CW, 437.150 USB
SO-50 02 Oct 01:51:46 01:54:10 14° 31° (NNE) 01:56:35 436.795 FM
KITSAT 1 02 Oct 01:55:04 02:03:12 80° 57° (ENE) 02:11:16 435.175 FM
JAS-1B 02 Oct 01:58:04 02:02:51 27° 95° (E) 02:07:56 435.800 - 435.900 CW/SSB
ITAMSAT 1 02 Oct 02:00:02 02:03:42 19° 92° (E) 02:07:22 435.822 SSB
Uribyol 2 02 Oct 02:00:33 02:04:25 21° 92° (E) 02:08:15 436.500 FM
Oscar 16 02 Oct 02:26:31 02:31:43 79° 104° (ESE) 02:36:51 437.025 USB, Beacon 2401.1428
AO-Echo 02 Oct 02:28:51 02:33:39 43° 99° (E) 02:38:33 ?
AO-27 02 Oct 02:37:49 02:42:47 42° 98° (E) 02:47:44 436.795 MHz FM
RS-15 02 Oct 02:38:21 02:49:22 81° 120° (ESE) 03:00:18 29.354 - 29.394 USB, Beacon 29.352 USB
Gurwin Techsat 1B 02 Oct 03:07:41 03:12:41 40° 98° (E) 03:17:39 435.225 FM
ISS 02 Oct 03:09:52 03:13:03 40° 23° (NNE) 03:16:13 145.800 FM
OPAL 02 Oct 03:11:42 03:14:42 16° 56° (NE) 03:17:43 ?
Oscar 19 02 Oct 03:24:59 03:29:33 33° 293° (WNW) 03:34:05 437.125 CW, 437.150 USB
SO-50 02 Oct 03:30:56 03:35:43 60° 52° (NE) 03:40:32 436.795 FM
TMSAT-1 02 Oct 03:35:36 03:40:49 53° 100° (E) 03:45:59 436.925 FM
ITAMSAT 1 02 Oct 03:38:26 03:43:34 57° 289° (WNW) 03:48:40 435.822 SSB
Uribyol 2 02 Oct 03:39:06 03:44:12 53° 289° (WNW) 03:49:16 436.500 FM
JAS-1B 02 Oct 03:48:25 03:53:45 43° 292° (WNW) 03:59:26 435.800 - 435.900 CW/SSB
AO-7 02 Oct 03:48:56 03:54:56 21° 91° (E) 04:00:53 29.400 - 29.500 MHz
KITSAT 1 02 Oct 03:51:41 03:57:43 24° 256° (WSW) 04:03:45 435.175 FM
Uosat F 02 Oct 03:53:21 03:55:21 12° 89° (E) 03:57:20 435.120 FM
UOSAT-12 02 Oct 03:54:20 03:57:20 16° 35° (NE) 04:00:19 437.025 FM, 437.400 FM
Oscar 16 02 Oct 04:07:31 04:10:24 15° 301° (WNW) 04:13:16 437.025 USB, Beacon 2401.1428
AO-Echo 02 Oct 04:08:07 04:12:12 26° 295° (WNW) 04:16:21 ?
AO-27 02 Oct 04:17:46 04:22:05 27° 296° (WNW) 04:26:24 436.795 MHz FM
ISS 02 Oct 04:46:41 04:49:42 33° 221° (SW) 04:52:43 145.800 FM
OPAL 02 Oct 04:47:42 04:52:55 82° 254° (WSW) 04:58:10 ?
Gurwin Techsat 1B 02 Oct 04:47:58 04:52:29 29° 295° (WNW) 04:56:58 435.225 FM
RS-15 02 Oct 04:52:57 05:02:54 38° 327° (NNW) 05:12:56 29.354 - 29.394 USB, Beacon 29.352 USB
SO-50 02 Oct 05:12:29 05:15:52 19° 249° (WSW) 05:19:16 436.795 FM
JAS-2 02 Oct 05:13:40 05:18:39 21° 91° (E) 05:23:56 435.800 - 435.900 CW/SSB, 435.910 FM
MaSat-1 02 Oct 05:14:22 05:19:04 51° 112° (ESE) 05:23:32 437.345 MHz
TMSAT-1 02 Oct 05:16:19 05:20:21 23° 298° (WNW) 05:24:23 436.925 FM
Uosat F 02 Oct 05:29:41 05:34:45 82° 286° (WNW) 05:39:47 435.120 FM
UOSAT-12 02 Oct 05:33:29 05:38:15 82° 55° (NE) 05:42:55 437.025 FM, 437.400 FM
Hamsat 02 Oct 05:39:19 05:41:55 16° 91° (E) 05:44:29 145.90 MHz
AO-7 02 Oct 05:40:18 05:48:38 84° 290° (WNW) 05:56:56 29.400 - 29.500 MHz
STRAND 1 02 Oct 05:51:51 05:56:17 31° 66° (ENE) 06:00:45 ?
OPAL 02 Oct 06:31:47 06:32:33 10° 271° (W) 06:33:19 ?
MaSat-1 02 Oct 06:51:59 06:55:45 23° 308° (NW) 06:59:19 437.345 MHz
JAS-2 02 Oct 06:57:28 07:04:08 78° 286° (WNW) 07:11:35 435.800 - 435.900 CW/SSB, 435.910 FM
SO-67 02 Oct 07:06:09 07:08:30 17° 93° (E) 07:10:51 435.3500 MHz FM
Uosat F 02 Oct 07:10:56 07:12:43 12° 304° (WNW) 07:14:31 435.120 FM
RS-15 02 Oct 07:11:01 07:19:30 24° 2° (N) 07:28:07 29.354 - 29.394 USB, Beacon 29.352 USB
Hamsat 02 Oct 07:14:06 07:18:08 46° 288° (WNW) 07:22:07 145.90 MHz
UOSAT-12 02 Oct 07:15:40 07:17:43 13° 252° (WSW) 07:19:44 437.025 FM, 437.400 FM
STRAND 1 02 Oct 07:30:47 07:35:24 34° 263° (W) 07:40:03 ?
AO-7 02 Oct 07:34:27 07:40:17 22° 311° (NW) 07:46:08 29.400 - 29.500 MHz
Sapphire 02 Oct 08:31:55 08:36:10 24° 108° (ESE) 08:40:27 437.095 MHz 1200 baud AX-25 AFSK
SO-67 02 Oct 08:38:34 08:41:34 28° 289° (WNW) 08:44:32 435.3500 MHz FM
JAS-2 02 Oct 08:44:30 08:48:21 16° 303° (WNW) 08:52:25 435.800 - 435.900 CW/SSB, 435.910 FM
HO-68 02 Oct 08:46:21 08:52:03 25° 93° (E) 08:57:44 435.675 MHz FM
PCSat 02 Oct 08:56:22 09:01:25 42° 113° (ESE) 09:06:31 145.825 MHz
RS-15 02 Oct 09:25:43 09:35:58 41° 35° (NE) 09:46:30 29.354 - 29.394 USB, Beacon 29.352 USB
Oscar 11 02 Oct 09:36:24 09:39:22 18° 92° (E) 09:42:18 145.825 FM, Beacon 2401.500 USB
FUNcube-1 02 Oct 10:04:12 10:06:58 16° 90° (E) 10:09:40 145.950 - 145.970 MHz USB
UKube-1 02 Oct 10:06:11 10:10:24 44° 99° (E) 10:14:34 145.840 MHz, 145.915 MHz
Sapphire 02 Oct 10:13:58 10:19:14 53° 306° (NW) 10:24:34 437.095 MHz 1200 baud AX-25 AFSK
HO-68 02 Oct 10:33:09 10:40:17 67° 291° (WNW) 10:47:23 435.675 MHz FM
PCSat 02 Oct 10:40:05 10:44:56 33° 312° (NW) 10:49:50 145.825 MHz
ZACube-1 02 Oct 10:48:29 10:52:52 45° 98° (E) 10:57:08 437.345 MHz
Oscar 11 02 Oct 11:11:39 11:15:46 43° 289° (WNW) 11:19:50 145.825 FM, Beacon 2401.500 USB
RS-15 02 Oct 11:38:15 11:49:20 76° 241° (WSW) 12:00:54 29.354 - 29.394 USB, Beacon 29.352 USB
FUNcube-1 02 Oct 11:39:15 11:43:42 54° 287° (WNW) 11:48:02 145.950 - 145.970 MHz USB
UKube-1 02 Oct 11:43:10 11:46:16 19° 296° (WNW) 11:49:22 145.840 MHz, 145.915 MHz
Sapphire 02 Oct 12:01:40 12:03:58 13° 328° (NNW) 12:06:17 437.095 MHz 1200 baud AX-25 AFSK
Oscar 16 02 Oct 12:07:38 12:11:09 19° 61° (ENE) 12:14:40 437.025 USB, Beacon 2401.1428
AO-27 02 Oct 12:22:27 12:23:48 11° 55° (NE) 12:25:08 436.795 MHz FM
HO-68 02 Oct 12:23:01 12:26:41 15° 311° (NW) 12:30:22 435.675 MHz FM
ZACube-1 02 Oct 12:25:38 12:28:56 20° 296° (WNW) 12:32:11 437.345 MHz
Saudisat 1A 02 Oct 12:34:54 12:36:02 11° 108° (ESE) 12:37:10 436.775 MHz
JAS-1B 02 Oct 12:44:48 12:50:59 32° 65° (ENE) 12:56:23 435.800 - 435.900 CW/SSB
Gurwin Techsat 1B 02 Oct 12:54:58 12:56:16 11° 55° (NE) 12:57:35 435.225 FM
Oscar 19 02 Oct 13:03:36 13:08:38 54° 71° (ENE) 13:13:42 437.125 CW, 437.150 USB
ITAMSAT 1 02 Oct 13:19:04 13:23:40 33° 66° (ENE) 13:28:17 435.822 SSB
Uribyol 2 02 Oct 13:19:28 13:24:09 36° 67° (ENE) 13:28:52 436.500 FM
TMSAT-1 02 Oct 13:21:09 13:23:49 14° 57° (ENE) 13:26:29 436.925 FM
MaSat-1 02 Oct 13:29:53 13:31:05 11° 44° (NE) 13:32:15 437.345 MHz
